Regional Weather Roundup
Issued by NWS Sterling, VA

Current Version | Previous Version | Text Only | Print | Product List | Glossary On
Versions: 1 2 3 4 5 6 7 8 9 10 11 12 13 14 15 16 17 18 19 20 21 22 23 24 25 26 27 28 29 30 31 32 33 34 35 36 37 38 39 40 41 42 43 44 45 46 47 48 49 50
419
ASUS41 KLWX 211111
RWRLWX

REGIONAL WEATHER ROUNDUP
NATIONAL WEATHER SERVICE BALTIMORE MD/WASHINGTON DC
700 AM EDT WED AUG 21 2019

Note: "FAIR" indicates few or no clouds below 12,000 feet
with no significant weather and/or obstructions to visibility.
 TC=TEMPERATURE CELSIUS

 * =Non NWS site. Station does not report precipitation (e.g. rain,
    snow, etc.), thunder, or fog.

DCZ001-MDZ009-015-VAZ040>042-051-053>054-211200-
WASHINGTON METRO

CITY           SKY/WX    TMP DP  RH WIND       PRES   REMARKS
WASHINGTON NAT MOCLDY    73  68  84 SW7       29.99R
DULLES         MOCLDY    70  67  90 S6        29.99R
ANDREWS AFB    FAIR      71  69  95 SW7       29.99R
FT BELVOIR     FAIR      69  68  96 CALM      29.99R
QUANTICO       FAIR      73  70  90 W5        30.00R
COLLEGE PARK*  FAIR     N/A N/A N/A CALM      29.98S
LEESBURG*      FAIR      66  66 100 CALM      30.00R
MANASSAS*      FAIR      69  68  96 SE5       29.99S
GAITHERSBURG*  FAIR      71  68  90 S3        30.00R

$$

MDZ006>007-011-014-211200-
BALTIMORE METRO

CITY           SKY/WX    TMP DP  RH WIND       PRES   REMARKS
BWI AIRPORT    MOCLDY    71  69  93 CALM      29.98R
MD SCIENCE CTR   N/A     73  68  84 MISG      29.98S
MARTIN STATE   MOCLDY    75  72  88 S6        29.99S
ANNAPOLIS      FAIR      76  69  79 S6        29.98R
ABERDEEN*      PTCLDY    68  68 100 CALM      29.98S
FORT MEADE*    FAIR      66  64  94 CALM      30.01R

$$

MDZ012-015-019>023-211200-
MARYLAND EASTERN SHORE

CITY           SKY/WX    TMP DP  RH WIND       PRES   REMARKS
OCEAN CITY     FAIR      78  74  87 SW9       30.02R
SALISBURY      FAIR      74  71  91 S3        30.02R
BAY BRIDGE AP* FAIR      75  72  88 S5        29.99R
CAMBRIDGE*     CLEAR     72  72 100 SE3       30.00S
EASTON*        MOCLDY    73  72  94 SE5       30.03S

$$

MDZ017>025-211200-
SOUTHERN MARYLAND

CITY           SKY/WX    TMP DP  RH WIND       PRES   REMARKS
PATUXENT RIVER MOCLDY    76  71  85 SW7       29.99S
ST INIGOES     FAIR      80  72  76 S8        30.00R
LEONARDTOWN*   FAIR      73  72  94 SW6       30.01F

$$

MDZ003>005-211200-
NORTH CENTRAL MARYLAND

CITY           SKY/WX    TMP DP  RH WIND       PRES   REMARKS
FREDERICK*     FAIR      70  68  94 CALM      30.00S
HAGERSTOWN APT MOCLDY    71  67  87 S8        29.97F

$$

MDZ501>502-211200-
WESTERN MARYLAND

CITY           SKY/WX    TMP DP  RH WIND       PRES   REMARKS
OAKLAND*       FAIR      64  64 100 SW9G16    30.08R
CUMBERLAND*    CLOUDY    70  69  98 CALM      30.04R FOG

$$

VAZ025>031-211200-
SHENANDOAH VALLEY

CITY           SKY/WX    TMP DP  RH WIND       PRES   REMARKS
WINCHESTER*    FAIR      66  64  94 SE5       29.97S
FRONT ROYAL*   FAIR      68  68 100 S5        29.98R
LURAY*         FAIR      70  70 100 SW3       30.00F
NEW MARKET*    FAIR      69  68  96 CALM      29.99F
STAUNTON*      FAIR      69  67  95 S3        30.05S
WAYNESBORO*    FAIR      68  67  99 CALM      30.04F

$$

WVZ021-048>050-054>055-211200-
EASTERN WEST VIRGINIA PANHANDLE

CITY           SKY/WX    TMP DP  RH WIND       PRES   REMARKS
MARTINSBURG    FAIR      69  67  93 S3        29.96F
PETERSBURG*    FAIR      68  68 100 CALM      30.00R FOG

$$

VAZ036>039-050-211200-
CENTRAL FOOTHILLS

CITY           SKY/WX    TMP DP  RH WIND       PRES   REMARKS
CHARLOTTESVILL FAIR      71  68  90 S7        30.01S
CULPEPER*      FAIR      72  70  93 S5        29.99F
ORANGE*        FAIR      68  68 100 CALM      30.00S
GORDONSVILLE*  FAIR      69  69 100 SW7       30.00F
WARRENTON*     FAIR      71  67  88 CALM      29.98F

$$

VAZ055>057-211200-
NORTH AND CENTRAL PIEDMONT

CITY           SKY/WX    TMP DP  RH WIND       PRES   REMARKS
FREDERICKSBRG* FAIR      73  73  98 SW3       29.99R
STAFFORD*      FAIR      72  72 100 CALM      30.04R

$$

NCZ024-NYZ072-PAZ021-071-VAZ022-071-211200-
OTHER REGIONAL OBSERVATIONS

CITY           SKY/WX    TMP DP  RH WIND       PRES   REMARKS
NEW YORK CITY  FAIR      77  73  87 CALM      30.00R FOG
PHILADELPHIA   MOCLDY    76  70  82 S7        29.99R
PITTSBURGH     CLOUDY    69  67  93 SW5       29.96S
ROANOKE        MOCLDY    71  68  90 S3        30.06S
RICHMOND       MOCLDY    74  71  91 SW7       30.02S
RALEIGH        CLOUDY    75  70  84 SW16G25   30.05S

$$

ANZ530>537-211200-
MARINE OBSERVATIONS

STATION/POSITION TIME  TEMP    WIND        PRES
                       AIR SEA DIR/SP/G
                 (UTC) (F)     (DEG/KT/KT) (MB)
THOMAS PT LIGHT  1100   75 83  180/  7/  9 1016.5R
BALT KEY BRIDGE  1030   74     190/  5/  5 1015.1R
COVE POINT       1030   76     220/ 12/ 16 1016.2R
LEWISETTA        1018   75 83  230/  7/  9 1016.1
SOLOMONS ISLAND  1030   77 84  220/ 10/ 13 1015.5R
PINEY POINT      1024          230/  9/ 12   N/A

$$





USA.gov is the U.S. government's official web portal to all federal, state and local government web resources and services.